{"data":{"norad_id":67954,"intl_designator":"2026-037Y","name":"STARLINK-36869","alt_names":[],"object_type":"PAYLOAD","status":"ACTIVE","operator":null,"country":"US","launch_date":"2026-02-24","launch_site_code":"AFETR","launch_vehicle":null,"mission":null,"orbit_class":"UNKNOWN","rcs_meters":null,"size_class":null,"mass_kg":null,"dimensions":null,"purposes":["comms"],"wikipedia_slug":null,"has_3d_model":false,"image_url":null,"decayed_at":null,"tle_current":{"epoch":"2026-05-25T05:14:59.899776Z","epoch_age_seconds":66710,"freshness":"FRESH","line1":"1 67954U 26037Y   26145.21874884  .00024628  00000+0  90104-3 0  9997","line2":"2 67954  42.9998 118.6405 0000655 254.1789 105.8990 15.27597284 15043","mean_motion":15.27597284,"eccentricity":6.55e-5,"inclination_deg":42.9998,"raan_deg":118.6405,"arg_perigee_deg":254.1789,"mean_anomaly_deg":105.899,"bstar":0.00090104,"rev_number":1504,"period_min":94.265682132491,"perigee_km":482.54793771435,"apogee_km":483.44674631315,"semimajor_km":6861.1343420137,"source":"CELESTRAK","updated_at":"2026-05-25T13:38:21.770946Z"}}}